Zurück zum Katalog

DELTA 1 DEB

AktivPO
NORAD 21566·DEBRIS·🇺🇸 United States

Gestartet Jun 12, 1975 von Vandenberg Space Force Base

Loading…

Nächste Überflüge (nächste 24 Stunden)

TLE

AktuellSource: Space-Track

Epoche: Sep 13, 2026, 22:13 UTC

1 21566U 75052HL  26256.92590624  .00000062  00000-0  33173-3 0  9995
2 21566  99.5801 251.6464 0323685 303.7581  81.6008 12.83942513655058

Verfolge DELTA 1 DEB in Echtzeit mit AllMySat

Download on the App Store